White Mountain, AK

10:16 PM AKST on January 17, 2017 (GMT -0900)
White Mountain

Weather History for PAWM - September, 2013

Change the Weather History Date:

Monday, September 9, 2013

  Actual Average (PAOM) Record (PAOM)
Temperature  
Mean Temperature 46 °F -  
Max Temperature 60 °F 51 °F 62 °F (1969)
Min Temperature 35 °F 36 °F 24 °F (1975)
Degree Days  
Heating Degree Days 19    
Moisture  
Dew Point -15 °F    
Average Humidity 8    
Maximum Humidity 10    
Minimum Humidity 6    
Precipitation  
Precipitation 0.00 in - - ()
Sea Level Pressure  
Sea Level Pressure 29.70 in    
Wind  
Wind Speed 9 mph (North)    
Max Wind Speed 13 mph    
Max Gust Speed -    
Visibility 10 miles    
Events Rain    
Averages and records for this station are not official NWS values.
T = Trace of Precipitation, MM = Missing Value Source: NWS Daily Summary

Daily Weather History Graph

Daily Weather History Graph

Search for Another Location

Airport or City:

Trip Planner

Search our weather history database for the weather conditions in past years. The results will help you decide how hot, cold, wet, or windy it might be!

Date:

Astronomy

Sep. 09, 2013 Rise Set
Actual Time 7:59 AM AKDT 9:40 PM AKDT
Civil Twilight 7:08 AM AKDT 10:31 PM AKDT
Nautical Twilight 6:00 AM AKDT 11:37 PM AKDT
Astronomical Twilight 4:25 AM AKDT 1:08 AM AKDT
Moon 2:35 PM AKDT (9/9) 10:00 PM AKDT (9/9)
Length of Visible Light 15h 23m
Length of Day
13h 40m
Waxing Crescent, 20% of the Moon is Illuminated
Sep 9
Waxing Crescent
Sep 12
First Quarter
Sep 19
Full
Sep 26
Last Quarter
Oct 4
New

Hourly Weather History & Observations

Time (AKDT) Temp. Windchill Dew Point Humidity Pressure Visibility Wind Dir Wind Speed Gust Speed Precip Events Conditions
12:58 AM 39.9 °F 33.4 °F -20.9 °F 7% 29.75 in 10.0 mi North 10.4 mph - N/A   Clear
1:58 AM 39.9 °F 33.9 °F -20.9 °F 7% 29.75 in 10.0 mi North 9.2 mph - N/A   Clear
2:58 AM 37.9 °F 30.5 °F -24.0 °F 6% 29.75 in 10.0 mi North 11.5 mph - N/A   Clear
3:58 AM 37.9 °F 30.5 °F -24.0 °F 6% 29.75 in 10.0 mi North 11.5 mph - N/A   Clear
4:58 AM 36.0 °F 27.5 °F -26.0 °F 6% 29.75 in 10.0 mi North 12.7 mph - N/A   Clear
5:58 AM 36.0 °F 28.5 °F -26.0 °F 6% 29.74 in 10.0 mi North 10.4 mph - N/A   Clear
6:58 AM 36.0 °F 28.0 °F -27.0 °F 6% 29.74 in 10.0 mi North 11.5 mph - N/A   Clear
7:58 AM 35.1 °F 26.4 °F -27.9 °F 6% 29.73 in 10.0 mi North 12.7 mph - N/A   Mostly Cloudy
8:58 AM 36.0 °F 27.5 °F -27.0 °F 6% 29.73 in 10.0 mi North 12.7 mph - N/A   Overcast
9:58 AM 37.0 °F - -25.1 °F 6% 29.73 in 10.0 mi Calm Calm - N/A   Overcast
10:58 AM 41.0 °F 35.8 °F -20.9 °F 7% 29.72 in 10.0 mi North 8.1 mph - N/A   Overcast
11:58 AM 43.0 °F 38.8 °F -17.0 °F 7% 29.72 in 10.0 mi North 6.9 mph - N/A   Overcast
12:58 PM 46.9 °F - -11.9 °F 8% 29.71 in 10.0 mi North 8.1 mph - N/A   Overcast
1:58 PM 51.1 °F - -7.1 °F 9% 29.70 in 10.0 mi NNW 9.2 mph - N/A   Overcast
2:58 PM 54.0 °F - -5.1 °F 9% 29.69 in 10.0 mi NNW 5.8 mph - N/A   Overcast
3:58 PM 57.9 °F - 1.0 °F 10% 29.67 in 10.0 mi North 8.1 mph - N/A   Overcast
4:58 PM 57.9 °F - 1.9 °F 10% 29.66 in 10.0 mi NNW 9.2 mph - N/A   Mostly Cloudy
5:58 PM 57.0 °F - -0.9 °F 9% 29.65 in 10.0 mi NNW 6.9 mph - N/A   Overcast
6:58 PM 54.0 °F - -4.0 °F 9% 29.65 in 10.0 mi NNW 6.9 mph - N/A   Overcast
7:58 PM 51.1 °F - -8.0 °F 9% 29.64 in 10.0 mi NNW 6.9 mph - 0.00 in Rain Light Rain
8:58 PM 51.1 °F - -9.0 °F 8% 29.64 in 10.0 mi NNW 9.2 mph - 0.00 in   Overcast
9:58 PM 50.0 °F - -9.0 °F 8% 29.64 in 10.0 mi North 6.9 mph - 0.00 in Rain Light Rain
10:58 PM 48.9 °F - -11.0 °F 8% 29.63 in 10.0 mi North 9.2 mph - 0.00 in Rain Light Rain
11:58 PM 48.9 °F - -11.0 °F 8% 29.63 in 10.0 mi North 9.2 mph - 0.00 in   Mostly Cloudy